Andover, NJ

1:35 PM EST on December 08, 2019 (GMT -0500)
Andover

Weather History for K12N - September, 2019

Change the Weather History Date:

Friday, September 27, 2019

  Actual Average (WUND) Record (WUND)
Temperature  
Mean Temperature 60 °F -  
Max Temperature 73 °F - - (-1)
Min Temperature 48 °F - - (-1)
Degree Days  
Heating Degree Days 4    
Growing Degree Days 10 (Base 50)    
Moisture  
Dew Point 51 °F    
Average Humidity 78    
Maximum Humidity 100    
Minimum Humidity 37    
Precipitation  
Precipitation 0.00 in - - ()
Sea Level Pressure  
Sea Level Pressure 30.10 in    
Wind  
Wind Speed 1 mph (SSW)    
Max Wind Speed 7 mph    
Max Gust Speed -    
Averages and records for this station are not official NWS values.
T = Trace of Precipitation, MM = Missing Value Source: NWS Daily Summary

Daily Weather History Graph

Daily Weather History Graph

Search for Another Location

Airport or City:

Astronomy

Sep. 27, 2019 Rise Set
Actual Time 6:51 AM EDT 6:48 PM EDT
Civil Twilight 6:23 AM EDT 7:15 PM EDT
Nautical Twilight 5:51 AM EDT 7:47 PM EDT
Astronomical Twilight 5:19 AM EDT 8:19 PM EDT
Moon 5:08 AM EDT (9/27) 6:38 PM EDT (9/27)
Length of Visible Light 12h 51m
Length of Day
11h 56m
Waning Crescent, 2% of the Moon is Illuminated
Sep 27
Waning Crescent
Sep 28
New
Oct 5
First Quarter
Oct 13
Full
Oct 21
Last Quarter

Hourly Weather History & Observations

Time (EDT) Temp. Dew Point Humidity Pressure Visibility Wind Dir Wind Speed Gust Speed Precip Events Conditions
12:54 AM 53.1 °F 53.1 °F 100% 29.97 in - Calm Calm - N/A   Unknown
1:54 AM 53.1 °F 53.1 °F 100% 29.99 in - Calm Calm - N/A   Unknown
2:54 AM 51.1 °F 51.1 °F 100% 30.01 in - Calm Calm - N/A   Unknown
3:54 AM 51.1 °F 50.0 °F 96% 30.03 in - Calm Calm - N/A   Unknown
4:54 AM 48.9 °F 48.0 °F 97% 30.04 in - Calm Calm - N/A   Unknown
5:54 AM 48.9 °F 48.0 °F 97% 30.07 in - Calm Calm - N/A   Unknown
6:54 AM 48.0 °F 48.0 °F 100% 30.10 in - South 4.6 mph - N/A   Unknown
7:54 AM 48.9 °F 48.9 °F 100% 30.14 in - Calm Calm - N/A   Unknown
8:54 AM 53.1 °F 53.1 °F 100% 30.16 in - SSW 3.5 mph - N/A   Unknown
9:54 AM 60.1 °F 55.0 °F 83% 30.16 in - Calm Calm - N/A   Unknown
10:54 AM 64.9 °F 54.0 °F 68% 30.16 in - SW 5.8 mph - N/A   Unknown
11:54 AM 68.0 °F 48.0 °F 49% 30.16 in - SSW 4.6 mph - N/A   Unknown
12:54 PM 69.1 °F 46.9 °F 45% 30.14 in - South 3.5 mph - N/A   Unknown
1:54 PM 72.0 °F 46.0 °F 40% 30.11 in - Variable 3.5 mph - N/A   Unknown
2:54 PM 73.0 °F 46.9 °F 39% 30.10 in - Variable 5.8 mph - N/A   Unknown
3:54 PM 73.9 °F 46.0 °F 37% 30.09 in - SW 6.9 mph - N/A   Unknown
4:54 PM 73.9 °F 46.0 °F 37% 30.10 in - Variable 3.5 mph - N/A   Unknown
5:54 PM 70.0 °F 51.1 °F 51% 30.11 in - Calm Calm - N/A   Unknown
6:54 PM 61.0 °F 54.0 °F 78% 30.12 in - Calm Calm - N/A   Unknown
7:54 PM 57.0 °F 54.0 °F 89% 30.12 in - Calm Calm - N/A   Unknown
8:54 PM 55.9 °F 54.0 °F 93% 30.14 in - Calm Calm - N/A   Unknown
9:54 PM 55.0 °F 53.1 °F 93% 30.14 in - Calm Calm - N/A   Unknown
10:54 PM 55.0 °F 53.1 °F 93% 30.14 in - Calm Calm - N/A   Unknown
11:54 PM 57.9 °F 55.9 °F 93% 30.12 in - Calm Calm - N/A   Unknown